GW3496 Weather Reports


Display with metric or nautical units.
time (UTC)temp
F
wind
direction
speed
MPH
gust
MPH
rain 1hr
in
rain 24hr
in
rain mn
in
humidity
%
barometer
mb
20260507003029 69 198 5.0 10.0 0.00 0.09 0.09 79 1006.2
20260507001533 70 223 4.0 14.0 0.00 0.09 0.09 79 1006.5
20260507000028 70 192 5.0 12.0 0.00 0.09 0.09 78 1006.4
20260506234540 70 204 7.0 12.0 0.00 0.09 0.09 77 1006.2
20260506233028 71 148 8.0 15.0 0.00 0.09 0.09 77 1005.9
20260506231535 70 175 8.0 16.0 0.00 0.09 0.09 77 1006.0
20260506230030 71 191 5.0 15.0 0.00 0.09 0.09 76 1006.1
20260506224531 71 194 7.0 15.0 0.00 0.09 0.09 75 1006.2
20260506223027 71 180 11.0 18.0 0.00 0.09 0.09 74 1006.0
20260506221529 72 218 13.0 26.0 0.00 0.09 0.09 73 1006.0
20260506220032 72 171 8.0 22.0 0.00 0.09 0.09 74 1006.0
20260506214529 72 246 9.0 22.0 0.00 0.09 0.09 73 1005.9
20260506213030 71 214 8.0 20.0 0.00 0.09 0.09 74 1006.2
20260506211529 71 201 12.0 19.0 0.00 0.09 0.09 74 1006.0
20260506210030 71 234 6.0 15.0 0.00 0.09 0.09 75 1006.1
20260506204534 70 196 11.0 21.0 0.00 0.09 0.09 75 1005.9
20260506203034 70 199 9.0 20.0 0.00 0.09 0.09 76 1006.1
20260506201530 69 211 12.0 22.0 0.00 0.09 0.09 76 1006.0
20260506200044 68 240 10.0 18.0 0.00 0.09 0.09 78 1006.0
20260506194530 67 196 9.0 19.0 0.00 0.09 0.09 79 1006.0
20260506193031 67 220 11.0 18.0 0.00 0.09 0.09 80 1006.1
20260506191533 67 213 11.0 19.0 0.00 0.09 0.09 80 1006.6
20260506190037 67 190 9.0 16.0 0.00 0.09 0.09 80 1006.7
20260506184538 67 157 6.0 14.0 0.00 0.09 0.09 80 1007.0
20260506183034 67 196 10.0 22.0 0.00 0.09 0.09 79 1006.8
20260506181534 67 186 6.0 19.0 0.00 0.09 0.09 80 1007.6
20260506180031 66 186 6.0 15.0 0.00 0.09 0.09 80 1007.2
20260506174533 66 161 8.0 15.0 0.00 0.09 0.09 81 1007.3
20260506173037 65 213 9.0 21.0 0.00 0.09 0.09 82 1007.5
20260506171536 65 215 8.0 23.0 0.00 0.09 0.09 82 1007.6
20260506170035 65 124 11.0 23.0 0.00 0.09 0.09 83 1007.6
20260506164532 65 201 9.0 17.0 0.00 0.09 0.09 84 1008.0
20260506163053 64 194 13.0 22.0 0.00 0.09 0.09 85 1007.8
20260506161530 63 203 14.0 25.0 0.00 0.09 0.09 86 1008.2
20260506160036 63 202 7.0 18.0 0.00 0.09 0.09 88 1008.2
20260506154538 62 184 8.0 18.0 0.02 0.09 0.09 88 1008.1
20260506153033 62 144 8.0 18.0 0.02 0.09 0.09 88 1008.1
20260506151537 62 228 10.0 17.0 0.08 0.09 0.09 88 1007.9
20260506150032 62 203 10.0 18.0 0.08 0.09 0.09 88 1008.1
20260506144529 62 186 13.0 24.0 0.06 0.07 0.07 87 1008.3
20260506143033 63 151 9.0 15.0 0.06 0.07 0.07 85 1008.7
20260506141533 63 197 10.0 15.0 0.01 0.01 0.01 84 1008.7
20260506140036 63 226 6.0 12.0 0.01 0.01 0.01 83 1008.5
20260506134540 63 130 8.0 13.0 0.01 0.01 0.01 82 1008.2
20260506133033 63 235 6.0 14.0 0.01 0.01 0.01 81 1008.3
20260506131537 64 203 9.0 17.0 0.00 0.00 0.00 78 1008.5
20260506130033 64 196 9.0 14.0 0.00 0.00 0.00 77 1008.6
20260506124543 65 211 6.0 14.0 0.00 0.00 0.00 75 1008.5
20260506123040 65 215 8.0 16.0 0.00 0.00 0.00 73 1008.2
20260506121557 65 205 8.0 20.0 0.00 0.00 0.00 72 1008.3
20260506120049 65 210 8.0 15.0 0.00 0.00 0.00 71 1008.4
20260506114542 65 235 13.0 23.0 0.00 0.00 0.00 72 1008.4
20260506113040 66 247 10.0 18.0 0.00 0.00 0.00 71 1008.4
20260506111545 66 202 11.0 19.0 0.00 0.00 0.00 71 1008.2
20260506110047 66 224 10.0 18.0 0.00 0.00 0.00 72 1008.0
20260506104543 66 202 8.0 16.0 0.00 0.00 0.00 72 1007.9
20260506103042 66 197 11.0 16.0 0.00 0.00 0.00 72 1008.2
20260506101554 66 201 10.0 18.0 0.00 0.00 0.00 71 1008.2
20260506100047 66 225 8.0 17.0 0.00 0.00 0.00 71 1008.1
20260506094543 66 207 8.0 16.0 0.00 0.00 0.00 71 1008.0
20260506093046 66 173 8.0 13.0 0.00 0.00 0.00 70 1007.9
20260506091538 66 163 7.0 13.0 0.00 0.00 0.00 70 1008.0
20260506084557 66 196 8.0 18.0 0.00 0.00 0.00 69 1008.2
20260506083045 66 208 7.0 20.0 0.00 0.00 0.00 68 1008.3
20260506081548 67 171 10.0 19.0 0.00 0.00 0.00 68 1008.2
20260506073050 68 232 10.0 15.0 0.00 0.00 0.00 66 1008.3
20260506071552 68 151 11.0 18.0 0.00 0.00 0.00 65 1008.2
20260506061549 70 160 5.0 18.0 0.00 0.00 0.00 61 1008.8
20260506044531 72 186 9.0 24.0 0.00 0.00 0.00 56 1009.1
20260506043028 73 171 11.0 24.0 0.00 0.00 0.00 55 1008.7
20260506041544 73 183 11.0 26.0 0.00 0.00 0.00 54 1009.0
20260506040029 73 176 8.0 25.0 0.00 0.00 0.00 53 1009.0
20260506034543 74 197 13.0 25.0 0.00 0.00 0.00 52 1009.0
20260506033029 74 178 6.0 16.0 0.00 0.00 0.00 52 1009.0
20260506031529 73 157 7.0 18.0 0.00 0.00 0.00 52 1009.0
20260506030028 73 100 9.0 16.0 0.00 0.00 0.00 51 1009.0
20260506024529 74 193 10.0 18.0 0.00 0.00 0.00 50 1009.1
20260506023030 74 213 6.0 13.0 0.00 0.00 0.00 49 1009.3
20260506021529 75 134 6.0 16.0 0.00 0.00 0.00 48 1009.2
20260506020028 75 163 3.0 15.0 0.00 0.00 0.00 46 1009.3
20260506014528 76 196 7.0 13.0 0.00 0.00 0.00 45 1009.2
20260506013041 76 174 5.0 13.0 0.00 0.00 0.00 44 1009.1
20260506011531 77 184 5.0 13.0 0.00 0.00 0.00 42 1008.9
20260506010032 77 148 9.0 19.0 0.00 0.00 0.00 41 1008.7
20260506004527 77 200 9.0 17.0 0.00 0.00 0.00 40 1008.3